Content
SEND FEEDBACK

Daily
Averages
Monthly
Summary
United States of America

SOUTH LAKE TAHOE, CALIFORNIA


Home > North America > United States > California
Elevation: 6263 feet     Latitude: 38 53N     Longitude: 119 59W

WEATHER
 
SELECT A DAY
Number of Records: 172,690;   Date Range: 1/1/95 - 4/16/14
 
SHARE

PRINT THIS DATA

[ ← Previous Day ]
WEATHER ALMANAC - MARCH 17, 2013
[ Next Day → ]
[ °C ]   °F
Weather ElementAverageHighLow
Temperature40 °F57 °F (2:53 pm)27 °F (5:53 am)
Dewpoint18.6 °F26.1 °F (6:53 pm)5 °F (10:53 am)
Humidity49.9 %75 % (1:53 am)14 % (1:53 pm)
Barometer30.05 in30.08 in (6:53 pm)30.01 in (2:53 pm)
Wind Speed1.9 mph8.1 mph (3:53 pm)
Wind Gust18.4 mph (4:53 pm)
Weather ElementAverage
Visibility10 mi
Wind DirectionNNE (28.2 °)

Weather ElementTotal
Precipitation---
Heating Degree Days23 (Base 65)
Averaged from 22 records on March 17, 2013
WEATHER CONDITIONS BREAKOUT
WIND DIRECTION BREAKOUT
WEATHER BY HOUR - MARCH 17, 2013
[ °C ]   °F
Local TimeTemperatureDewpointHumidityBarometerVisibilityWind DirectionWind SpeedGust SpeedPrecipitationEventsConditions
1:53 AM28.9 °F21.9 °F75 %30.06 in10.0 miCalmClear
2:53 AM28.9 °F21.9 °F75 %30.06 in10.0 miCalmClear
3:53 AM28.9 °F21.0 °F72 %30.04 in10.0 miCalmClear
4:53 AM28.9 °F21.0 °F72 %30.04 in10.0 miCalmClear
5:53 AM27.0 °F19.0 °F72 %30.04 in10.0 miCalmClear
6:53 AM27.0 °F19.0 °F72 %30.06 in10.0 miVariable3.5 mphClear
7:53 AM30.9 °F19.0 °F61 %30.06 in10.0 miCalmClear
8:53 AM35.1 °F21.0 °F57 %30.07 in10.0 miCalmClear
9:53 AM48.0 °F10.9 °F22 %30.04 in10.0 miCalmClear
10:53 AM52.0 °F5.0 °F15 %30.04 in10.0 miCalmClear
11:53 AM54.0 °F8.1 °F16 %30.04 in10.0 miVariable5.8 mphClear
1:53 PM54.0 °F5.0 °F14 %30.02 in10.0 miVariable3.5 mphClear
2:53 PM57.0 °F10.0 °F15 %30.01 in10.0 miVariable3.5 mphClear
3:53 PM53.1 °F16.0 °F23 %30.03 in10.0 miWSW (240°)8.1 mphClear
4:53 PM53.1 °F18.0 °F25 %30.04 in10.0 miVariable5.8 mph18.4 mphClear
5:53 PM51.1 °F21.9 °F32 %30.06 in10.0 miSSW (200°)6.9 mphClear
6:53 PM45.0 °F26.1 °F48 %30.08 in10.0 miCalmClear
7:53 PM39.9 °F25.0 °F55 %30.08 in10.0 miCalmClear
8:53 PM37.0 °F25.0 °F62 %30.08 in10.0 miCalmClear
9:53 PM35.1 °F26.1 °F70 %30.06 in10.0 miCalmClear
10:53 PM33.1 °F25.0 °F72 %30.07 in10.0 miCalmClear
11:53 PM30.9 °F23.0 °F72 %30.07 in10.0 miSouth (180°)4.6 mphClear
Hourly data recorded from KTVL, located 0.96 miles away from South Lake Tahoe, California







STORIES FROM OUR PARTNERS